EDT,Max TemperatureF,Mean TemperatureF,Min TemperatureF,Max Dew PointF,MeanDew PointF,Min DewpointF,Max Humidity, Mean Humidity, Min Humidity, Max Sea Level PressureIn, Mean Sea Level PressureIn, Min Sea Level PressureIn, Max VisibilityMiles, Mean VisibilityMiles, Min VisibilityMiles, Max Wind SpeedMPH, Mean Wind SpeedMPH, Max Gust SpeedMPH,PrecipitationIn, CloudCover, Events, WindDirDegrees
2014-3-1,35,21,7,18,5,-9,77,50,25,30.47,30.31,30.09,10,10,10,12,3,,0.00,2,,206
2014-3-2,37,32,27,22,17,9,61,52,45,30.07,30.03,29.99,10,10,10,12,7,,0.00,8,,297
2014-3-3,25,20,10,8,-3,-10,50,38,27,30.31,30.17,30.03,10,10,10,16,9,22,0.00,2,,329
2014-3-4,28,18,7,2,-5,-10,53,36,26,30.40,30.32,30.26,10,10,10,8,4,,0.00,3,,265
2014-3-5,25,20,15,15,12,3,81,70,46,30.53,30.36,30.26,10,7,1,12,7,,0.00,8,Snow,18
2014-3-6,28,18,7,5,-7,-16,64,37,14,30.66,30.59,30.54,10,10,10,9,4,,0.00,0,,357
2014-3-7,37,22,7,22,11,1,80,59,36,30.51,30.28,29.98,10,10,9,6,2,,0.00,2,,120
2014-3-8,51,37,23,24,21,18,85,55,29,29.95,29.82,29.71,10,10,10,14,3,23,0.00,2,,326
2014-3-9,37,32,26,9,6,2,47,33,26,29.94,29.90,29.87,10,10,10,17,7,23,0.00,1,,295
2014-3-10,42,34,27,29,21,8,85,66,40,29.89,29.79,29.65,10,8,2,13,6,,0.00,7,Snow,212
2014-3-11,54,44,34,31,28,22,85,60,29,29.73,29.60,29.52,10,9,5,15,7,25,0.00,3,Rain,214
2014-3-12,43,39,35,37,34,30,97,86,73,29.74,29.37,29.05,10,4,0,15,6,,0.37,8,Fog-Rain,32
2014-3-13,34,25,15,31,13,-5,89,73,37,29.94,29.32,29.03,10,4,0,25,14,38,0.05,8,Fog-Rain-Snow,322
2014-3-14,37,24,12,22,6,-5,59,43,29,30.18,30.05,29.91,10,10,10,15,9,20,0.00,3,,230
2014-3-15,54,45,36,33,27,17,76,55,37,29.89,29.77,29.66,10,10,8,24,11,38,0.01,3,Rain,234
2014-3-16,35,28,19,16,4,-4,56,36,24,30.22,30.09,29.88,10,10,10,23,15,33,0.00,0,,290
2014-3-17,30,21,14,-2,-7,-9,40,31,21,30.22,30.16,30.07,10,10,10,13,8,18,0.00,0,,341
2014-3-18,37,26,14,17,6,-3,72,45,27,30.38,30.32,30.19,10,10,10,10,4,,0.00,0,,42
2014-3-19,42,30,19,28,21,15,85,64,41,30.42,30.28,30.03,10,10,2,10,3,17,0.00,4,Rain,106
2014-3-20,48,41,34,38,33,23,97,77,42,30.00,29.72,29.60,10,6,0,20,7,34,0.52,6,Fog-Rain,312
2014-3-21,43,36,32,23,20,16,59,50,41,30.04,29.86,29.74,10,10,10,20,14,32,0.00,3,,262
2014-3-22,55,40,27,32,22,17,69,54,33,30.06,29.89,29.66,10,10,8,26,8,41,0.01,2,Rain,232
2014-3-23,43,32,21,22,12,-3,64,42,23,30.11,29.98,29.94,10,10,10,18,9,26,0.00,1,,286
2014-3-24,30,22,14,3,-4,-7,47,34,20,30.18,30.13,30.06,10,10,10,16,11,28,0.00,0,,305
2014-3-25,37,26,16,15,7,2,65,43,23,30.16,30.09,29.96,10,10,10,17,7,26,0.00,1,,209
2014-3-26,33,28,23,16,7,-3,56,40,24,30.02,29.78,29.61,10,10,10,28,15,46,0.00,6,,338
2014-3-27,43,31,19,9,-2,-5,36,26,14,30.32,30.24,30.05,10,10,10,18,12,34,0.00,1,,267
2014-3-28,55,45,35,46,34,11,90,66,37,30.23,30.05,29.95,10,9,2,20,9,28,0.03,7,Rain,208
2014-3-29,50,44,39,45,37,32,89,77,54,30.27,30.17,30.04,10,8,4,14,8,23,0.46,5,Rain,51
2014-3-30,39,37,35,37,35,32,93,89,86,29.99,29.74,29.67,10,3,1,24,18,32,1.77,8,Rain,30
2014-3-31,42,38,33,34,31,26,93,84,60,30.03,29.84,29.73,10,5,2,21,11,30,1.07,8,Rain-Snow,359